FENGYUN 1C DEB

Satellite information

Favourite Embed

Satellite Type and Status

DEBRISIN ORBIT

Key statistics

Satellite FENGYUN 1C DEB at a glance.

Uptime

9716

Days in orbit

Revolutions

≈ 14.7

Per day

Orbit

SSO

Sun Synchronous Orbit

Inclination

99.4

Latest

Satellite identification and parameters

Extended collection of information and parameters for FENGYUN 1C DEB.

Object identification

Identified? True

Debris? True

Object name: FENGYUN 1C DEB

International designator: 1999-025MH

Object number (NORAD): 30008

Object ID (CCSDS): 30008

Country: PEOPLES REPUBLIC OF CHINA (PRC)

Current information (Y/N): Y

RCS size: SMALL

Orbital parameters

Period: 98.202 minutes

Inclination: 99.3683 deg

SMA: 7050.848 km

Apoapsis: 700.172 km

Periapsis: 645.255 km

RAAN: 304.9678 deg

Eccentricy: 0.0038944

Argument of periapsis: 186.8761 deg

Mean anomaly: 334.0036 deg

Mean motion: 14.66360288 rev/day

Mean motion (dot): 0.00012905 rev/day2

B* drag term: 0.0023173122 1/REarth

Two-line elements (TLE)

Creation date: Dec. 14, 2025, 6:24 p.m.

Reference frame: TEME

Reference center: EARTH

Epoch: Dec. 14, 2025, 8:44 a.m. UTC

TLE line 0: 0 FENGYUN 1C DEB

TLE line 1: 1 30008U 99025MH 25348.36448576 .00012905 00000-0 23173-2 0 9996

TLE line 2: 2 30008 99.3683 304.9678 0038944 186.8761 334.0036 14.66360288990835

Live tracking on map

Real-time ground track for satellite FENGYUN 1C DEB.

In-orbit conjunctions

A list of the most updated potential collisions computed for object FENGYUN 1C DEB.

Target Orbit TCA Probability of collision Miss distance Type
CZ-6A DEB LEO 2024-11-16 11:55:14 0.0002193272 302.0 (m) DEBRIS
CZ-6A DEB LEO 2024-10-02 06:34:23 0.0002803117 273.0 (m) DEBRIS

Associated space launch

Chinese polar orbiting meteorological satellite

FENGYUN 1C DEB was lifted into orbit during the mission ‘Long March 4B | Feng Yun 1C’, on board a Long March 4B space rocket.

The launch took place on May 10, 1999, 1:33 a.m. from Launch Complex 7.

For more information about the launch, click the button.

Launch to space Long March 4B | Feng Yun 1C
Long March 4B | Feng Yun 1C

Agency: N/A

Status: Launch Successful

Launch date: May 10, 1999, 1:33 a.m. UTC

Rocket: Long March 4B

Launch pad: Launch Complex 7

Location: Taiyuan Satellite Launch Center, People's Republic of China

...

Latest news about this satellite

There are no fresh news available about this satellite. Check back as we update our databases every day.


Newsletter sign-up

Weekly statistics, charts and insights to help you stay on top of the space industry.